Regional Weather Roundup
Issued by NWS Charleston, SC

Home | Current Version | Previous Version | Text Only | Print | Product List | Glossary On
Versions: 1 2 3 4 5 6 7 8 9 10 11 12 13 14 15 16 17 18 19 20 21 22 23 24 25 26 27 28 29 30 31 32 33 34 35 36 37 38 39 40 41 42 43 44 45 46 47 48 49 50
000
ASUS42 KCHS 182325
RWRCHS

REGIONAL WEATHER ROUNDUP
NATIONAL WEATHER SERVICE CHARLESTON SC
600 PM EST THU DEC 18 2014

NOTE: "FAIR" INDICATES FEW OR NO CLOUDS BELOW 12,000 FEET WITH NO
SIGNIFICANT WEATHER AND/OR OBSTRUCTIONS TO VISIBILITY.

NOT ALL STATIONS ARE QUALITY CONTROLLED BY THE NATIONAL
WEATHER SERVICE. USE DATA WITH CAUTION...ESPECIALLY
DEWPOINT OBSERVATIONS.

SCZ027-030-031-034>040-042>050-190000-
...SOUTHEAST SOUTH CAROLINA...

CITY           SKY/WX    TMP DP  RH WIND       PRES   REMARKS
N CHARLESTON   PTCLDY    51  43  74 S6        30.08S
WATERFRONT PRK   N/A     55 N/A N/A E6          N/A
MOUNT PLEASANT LGT RAIN  48  46  93 CALM      30.09R
PINOPOLIS        N/A     57  45  62 MISG      30.00R
MONCKS CORNER  FAIR      50  43  76 CALM      30.08R
SUMMERVILLE    NOT AVBL
BEAUFORT MCAS  PTCLDY    55  48  77 SE5       30.08S
BEAUFORT ARPT  FAIR      52  46  82 S5        30.08S
HILTON HEAD IS CLEAR     52  46  82 S3        30.10R
WALTERBORO     CLEAR     52  41  66 CALM      30.08S
ALLENDALE      FAIR      52  45  76 CALM      30.08R

...SOUTHERN MIDLANDS AND PEE DEE...

CITY           SKY/WX    TMP DP  RH WIND       PRES   REMARKS
GEORGETOWN     NOT AVBL
KINGSTREE      NOT AVBL
ORANGEBURG     PTCLDY    50  41  71 CALM      30.08R
BARNWELL       FAIR      50  45  81 CALM      30.09S
AIKEN          FAIR      50  43  76 CALM      30.11S
MANNING        NOT AVBL
COLUMBIA       PTCLDY    53  37  54 CALM      30.08S
SUMTER         CLEAR     49  35  58 CALM      30.08R
FLORENCE       PTCLDY    50  31  48 CALM      30.09S
MYRTLE BEACH   CLEAR     48  37  66 SW6       30.10S
N MYRTLE BEACH PTCLDY    46  39  76 CALM      30.10R

$$

GAZ063-065-086>088-099>101-113>116-118-119-134>141-150-190000-
...SOUTHEAST GEORGIA...

CITY           SKY/WX    TMP DP  RH WIND       PRES   REMARKS
SAVANNAH ARPT  MOCLDY    56  38  50 CALM      30.08S
HUNTER AAF     CLEAR     54  42  65 SE2       30.06S
FORT STEWART   CLEAR     52  42  70 CALM      30.07S
STATESBORO     CLEAR     48  42  81 CALM      30.09R
SYLVANIA       PTCLDY    51  44  76 CALM      30.09S
CLAXTON        FAIR      48  45  87 CALM      30.09S

...CSRA...CENTRAL AND FAR SOUTHEAST GEORGIA...

CITY           SKY/WX    TMP DP  RH WIND       PRES   REMARKS
THOMSON        CLEAR     50  45  81 CALM      30.13S
AUGUSTA-BUSH   CLEAR     51  40  65 CALM      30.08S
AUGUSTA-DANIEL PTCLDY    57  41  55 NW5       30.08S
SWAINSBORO     FAIR      52  45  76 CALM      30.10R
VIDALIA        CLEAR     54  43  66 CALM      30.09R
EASTMAN        FAIR      52  38  58 CALM      30.12R
HAZLEHURST     FAIR      54  43  65 CALM      30.08S
ALMA           CLEAR     53  40  61 CALM      30.09R
WAYCROSS       CLEAR     54  43  68 CALM      30.10R
JESUP          FAIR      52  46  82 CALM      30.10R
BAXLEY         FAIR      54  43  66 CALM      30.09R
BRUNSWICK      CLEAR     52  43  71 SW3       30.11R
SAINT SIMONS   PTCLDY    53  44  71 W3        30.08F

$$

SCZ027-028-034-036>038-045-046-048>050-GAZ119-141-190000-
...LAKE AND SUPPLEMENTAL COASTAL OBSERVATIONS...

STATION/POSITION TIME  TEMP    WIND        PRES    WAVE   SWELL
                       AIR SEA DIR/SP/G            HT/PER HT/PER/DIR
                 (UTC) (F)     (DEG/KT/KT) (MB)    (FT/S) (FT/S/D)
UPR LAKE MARION  NOT AVBL
WINYAH BAY       2300   48        CALM     1018.0S
LAKE MURRAY      2200   54        CALM     1018.3R
ACE BASIN NERRS  2300   51        CALM     1018.0S
FORT PULASKI     2300   53 57  170/  3/  4 1019.0S
SAPELO ISLAND    2300   52        CALM     1018.0S

$$

ANZ835-935-AMZ111-154-330-350-352-354-370-450-454-472-190000-
...C-MAN AND BUOY OBSERVATIONS...

STATION/POSITION TIME  TEMP    WIND        PRES    WAVE   SWELL
                       AIR SEA DIR/SP/G            HT/PER HT/PER/DIR
                 (UTC) (F)     (DEG/KT/KT) (MB)    (FT/S) (FT/S/D)
BUOY 41004       2300   60 72  300/  4/  6 1018.1R   2/10   2/10
BUOY 41008       2300   56 58  210/  4/  6 1018.5F   1/10   2/100/10
FOLLY BEACH CMAN 2300   55      90/  5/  5 1019.0F
CAPERS NEARSHORE 2200   55      80/ 10/ 12   N/A
FRIPP NEARSHORE  NOT AVBL


STATION/POSITION TIME  TEMP    WIND        PRES    WAVE   SWELL
                       AIR SEA DIR/SP/G            HT/PER HT/PER/DIR
                 (UTC) (F)     (DEG/KT/KT) (MB)    (FT/S) (FT/S/D)
5E ST. MARYS GA  2300      61                N/A     1/11
FRYING PAN BUOY  2300   56 66   40/  6/  8 1019.3R   2/ 4   2/ 30/ 4
BUOY 41025       2300   47                 1019.2R   3/ 7
CAPE LOOKOUT NC  2300   48      30/  4/  5 1019.2R
BUOY 41002       2159   68 72  350/  6/  8 1017.8R   3/ 5   3/310/ 5
BUOY 41010       2300   70 76  310/  8/ 10 1018.6R   2/10   2/ 70/10
ST AUGUSTINE FL  2300   58     240/  3/  4 1019.7S


$$



USA.gov is the U.S. government's official web portal to all federal, state and local government web resources and services.